Location: El Bakhil
(32.7726°N, 5.5387°W)
Time: 19:15:50
(UTC+00:00)

Cosmos 2366 rocket - Pass Details

Date: 03 March 2021
Orbit: 955 x 997 km, 82.9° (Epoch: 09 April)

Event Time Altitude Azimuth Distance (km) Brightness Sun altitude
Rises 20:01:18 0° 182° (S) 3,666 7.0 -21.8°
Reaches altitude 10° 20:03:48 10° 181° (S) 2,728 6.3 -22.4°
Maximum altitude 20:10:04 83° 95° (E) 1,001 3.9 -23.7°
Drops below altitude 10° 20:16:26 10° 8° (N) 2,765 6.4 -25.0°
Sets 20:18:58 0° 7° (N) 3,720 7.1 -25.5°
